Wind_Speed
15 14 15 16 17 16 17 18 19 20 21 21 23 24 25 26 26 26 27 25 26 26 26 26 26 26 27 26 26 26 25 25 24 24 23 23 23 22 22 22 23 23 22 22
16 15 15 16 16 16 16 17 19 20 22 22 22 24 26 26 27 27 27 26 28 26 26 26 26 27 26 26 26 26 25 25 24 23 23 23 22 21 21 22 22 22 21 22
15 15 16 16 16 17 18 18 20 21 23 23 23 24 24 24 25 26 26 26 27 27 26 27 27 27 27 26 26 26 26 25 24 24 23 22 21 21 22 22 22 22 22 22
18 17 17 17 17 18 19 20 21 22 22 22 22 23 24 25 26 26 27 26 27 27 27 27 27 27 27 26 26 26 25 24 23 23 23 22 22 22 22 23 23 23 23 22
18 18 19 18 19 19 20 22 22 22 22 23 24 24 25 25 26 27 27 26 27 27 27 27 27 27 26 26 26 25 24 24 24 23 23 23 23 23 23 23 23 23 22 21
19 19 19 19 21 21 22 24 24 23 23 23 24 25 25 26 26 27 27 27 27 27 27 27 28 27 27 27 26 26 25 25 25 24 24 24 24 23 22 22 22 21 20 20
19 20 20 22 23 23 24 25 25 24 24 25 25 26 26 26 26 27 28 28 27 27 27 28 28 27 27 26 26 26 26 26 25 25 25 24 24 22 22 22 21 20 20 20
21 21 22 24 24 24 25 25 26 25 25 26 26 26 26 26 27 28 28 28 27 28 28 27 27 27 26 26 26 26 26 26 25 25 25 24 23 22 21 21 21 21 20 20
25 25 24 25 26 26 26 27 27 26 26 26 26 26 27 27 27 28 28 28 27 28 27 27 26 26 26 25 25 25 26 25 25 25 25 24 23 22 21 21 20 20 20 20
27 26 26 26 27 26 27 27 27 27 27 27 27 27 27 27 27 28 28 28 27 27 27 27 27 26 26 25 25 25 25 25 26 26 25 24 22 21 20 20 20 19 19 19
28 28 27 27 27 27 28 28 27 27 28 28 28 27 27 27 27 27 28 28 27 27 27 27 26 26 26 25 25 25 25 26 26 26 24 23 22 21 20 19 19 19 19 19
29 28 29 28 29 28 28 28 28 28 28 28 28 28 28 27 27 27 28 28 28 28 27 27 27 27 27 26 26 26 26 27 26 25 24 22 21 20 20 20 19 19 19 18
30 29 30 28 29 28 29 29 29 29 29 29 29 29 28 28 28 28 28 28 28 28 28 28 28 27 27 27 27 27 26 26 25 24 23 21 21 21 20 19 19 18 18 17
31 30 29 30 29 29 30 30 30 30 30 30 30 30 29 29 28 28 29 29 29 29 29 29 29 28 28 27 27 26 26 25 24 23 22 21 21 20 20 19 18 18 18 17
31 31 30 31 31 31 31 31 31 30 30 30 31 31 30 30 30 30 30 30 31 31 30 30 30 29 29 29 28 27 26 25 24 23 22 21 20 20 19 19 19 18 18 18
32 31 31 31 32 32 32 32 32 31 32 32 32 31 31 31 31 31 31 31 32 31 31 31 30 30 29 29 28 26 25 25 24 23 22 22 20 20 20 20 19 18 18 18
32 32 31 32 32 33 33 33 33 32 32 32 32 31 31 31 31 31 32 32 32 31 31 30 30 30 29 28 26 26 25 24 24 23 22 21 21 21 20 19 18 18 18 18
33 33 33 33 33 33 33 33 33 33 33 33 32 32 32 32 32 32 32 32 32 31 30 30 29 28 27 26 25 25 24 24 23 22 21 21 21 21 20 19 18 18 18 17
34 34 33 34 34 33 34 34 34 34 33 33 33 33 33 33 32 32 32 32 31 30 29 29 28 27 25 25 24 24 24 22 22 21 21 21 21 20 20 19 19 18 17 17
34 34 34 34 34 34 34 34 33 33 33 33 33 33 33 32 32 32 31 31 30 29 28 27 26 25 24 24 23 23 22 21 21 21 21 20 20 19 19 19 19 18 17 17
33 33 33 33 34 34 34 33 33 33 33 33 33 33 32 32 31 31 30 30 29 28 28 27 26 25 24 24 23 22 21 21 20 20 20 19 19 19 19 19 18 17 17 16
32 32 33 33 33 33 34 34 34 33 32 32 31 30 30 29 29 29 29 28 28 27 26 26 25 24 24 23 22 22 21 20 20 20 20 18 18 19 18 17 16 15 14 14
32 32 32 32 32 33 33 33 33 32 31 30 29 29 28 29 29 28 27 27 26 25 24 24 23 23 23 22 22 21 20 20 19 19 19 18 18 18 17 16 16 15 14 13
31 31 32 32 32 32 32 32 32 31 30 30 30 29 28 27 27 27 26 25 24 24 23 22 22 22 21 21 21 20 20 19 19 19 18 18 18 17 16 16 15 15 14 13
31 31 31 31 31 31 31 31 30 30 30 30 29 28 28 27 26 26 25 25 23 22 22 22 21 21 21 21 21 20 20 20 19 18 18 18 17 16 16 15 15 14 13 12
32 31 31 31 31 30 30 30 29 29 29 28 28 27 27 27 26 26 25 24 23 23 22 22 21 21 21 20 20 19 19 19 19 18 18 18 17 16 15 15 15 14 13 13
31 31 31 31 30 30 29 29 28 28 28 27 27 26 26 26 25 24 24 24 23 23 22 22 22 22 21 21 20 20 20 19 19 19 18 18 17 16 15 16 15 14 13 12
Wind_Direction
270 274 272 276 279 279 279 280 283 285 287 289 295 300 305 306 308 309 310 313 314 314 315 317 318 318 318 319 319 319 318 317 314 313 311 310 309 307 306 306 305 304 301 297
272 273 274 277 280 278 277 278 282 284 285 288 293 300 304 306 307 309 310 312 313 314 316 316 318 317 318 318 319 319 318 317 315 312 310 309 308 309 307 306 305 304 301 299
279 280 279 275 279 279 281 285 284 281 281 284 290 297 300 303 306 309 312 312 312 313 314 314 316 316 317 317 317 317 317 316 315 313 312 311 310 309 308 307 306 305 304 303
279 284 281 283 282 281 281 280 279 281 284 290 297 300 300 303 308 310 312 312 312 313 312 313 315 316 315 316 317 318 317 315 314 312 311 310 309 309 307 305 305 306 307 304
274 277 279 282 280 278 279 280 281 282 286 291 295 297 299 303 307 308 309 310 311 311 312 313 314 315 315 316 317 317 316 315 313 310 308 308 308 308 307 306 306 307 309 306
273 274 277 281 280 281 283 282 284 285 286 289 292 295 299 304 306 308 309 311 311 310 311 311 313 313 314 315 315 315 314 313 312 311 311 310 309 308 308 309 309 310 310 308
273 275 277 279 281 284 283 287 290 288 288 290 293 297 300 302 305 307 308 309 310 310 310 311 312 313 313 314 313 313 314 314 313 313 313 311 311 310 309 309 308 308 309 309
272 273 272 276 281 284 286 287 289 290 292 293 295 296 298 301 304 305 307 308 309 310 311 311 313 313 312 311 312 313 314 315 315 315 314 312 311 309 307 306 306 307 308 308
269 272 273 276 280 283 284 287 288 290 292 293 294 296 298 300 302 305 307 310 310 311 311 312 313 314 313 311 311 312 314 315 315 316 314 312 310 309 308 307 306 308 307 307
272 275 276 277 280 281 284 286 288 289 291 292 294 296 298 300 301 304 307 308 310 310 310 311 311 312 311 310 311 312 314 315 315 314 314 312 311 310 308 308 308 308 308 308
274 276 278 280 281 282 285 287 289 289 291 292 295 296 298 300 301 303 305 307 308 309 309 310 310 311 311 310 311 312 314 314 315 315 315 314 313 312 310 309 311 310 308 309
274 276 279 281 281 283 284 287 289 290 291 292 293 294 296 298 301 303 304 306 308 309 309 309 310 311 311 310 311 312 313 313 313 313 313 314 313 312 310 310 310 309 308 309
273 275 277 279 281 283 284 286 287 289 290 291 293 293 295 297 299 301 303 304 306 308 308 308 310 311 311 309 309 310 310 311 311 312 313 312 312 312 311 311 310 309 308 309
270 272 275 278 280 281 283 284 287 288 290 291 292 293 294 296 297 299 301 302 304 305 306 307 307 308 308 308 308 309 310 310 310 310 311 310 310 311 312 312 311 310 309 308
269 271 273 275 277 279 281 283 285 287 289 290 291 292 293 294 296 297 299 300 302 303 304 305 305 305 306 306 305 305 305 306 307 308 308 308 307 309 310 311 311 311 308 307
269 271 274 275 277 279 281 282 284 286 287 289 291 291 292 293 295 296 298 299 301 302 303 304 305 304 304 304 303 302 301 302 303 304 304 304 305 306 306 307 307 307 307 307
268 270 273 275 277 279 281 283 284 286 288 289 290 291 292 293 294 296 297 298 299 301 303 304 304 304 303 303 302 301 300 300 300 301 302 301 301 303 303 302 303 304 306 306
268 269 272 275 277 279 280 282 284 286 287 288 289 290 291 292 294 295 296 297 298 299 301 302 303 304 303 302 302 302 301 300 299 299 300 300 299 299 300 301 302 302 303 303
269 269 271 272 274 277 279 281 283 285 287 288 289 290 291 292 293 295 296 296 297 298 300 301 301 302 303 302 302 302 301 299 298 297 298 299 297 296 299 300 301 300 299 298
267 269 270 272 274 276 279 281 283 284 285 287 288 289 291 291 292 293 295 296 297 298 299 299 300 301 301 302 303 302 301 298 296 296 299 300 299 297 297 297 298 296 297 295
268 270 271 272 274 276 278 280 282 283 285 286 287 288 290 291 292 293 295 295 296 296 297 297 298 299 299 299 300 301 300 298 297 298 300 302 302 301 298 296 296 294 293 292
268 268 270 273 275 276 278 279 281 283 283 285 286 288 290 291 291 293 294 294 294 294 295 295 296 296 298 298 299 300 299 297 297 301 301 301 301 302 302 299 299 297 293 289
268 270 272 274 275 276 277 278 280 281 283 284 285 287 289 290 290 291 292 292 293 293 293 295 295 294 296 298 299 298 297 296 298 300 300 299 301 301 300 300 301 297 294 292
267 270 272 274 275 275 275 276 277 278 279 281 283 285 288 289 290 292 293 293 294 294 294 295 294 293 294 296 297 297 297 296 298 299 299 300 300 301 299 299 298 295 295 296
270 271 271 273 275 275 275 275 275 276 278 280 282 283 285 287 289 291 292 292 293 293 294 293 292 292 292 295 296 296 295 295 295 294 293 294 294 296 298 298 296 294 295 298
269 271 272 274 274 274 274 273 274 275 277 279 280 281 282 285 286 287 289 289 288 289 291 291 291 290 291 293 293 294 294 294 296 293 291 292 293 294 294 293 293 296 296 295
271 272 273 273 274 273 273 273 274 275 276 277 278 279 280 281 284 285 286 285 285 286 288 290 291 291 289 289 289 290 291 293 293 292 292 290 290 290 290 290 289 289 290 288
Height
5832 5832 5832 5832 5831 5830 5829 5828 5827 5825 5821 5819 5817 5814 5812 5808 5805 5802 5798 5794 5791 5787 5783 5780 5776 5771 5767 5763 5758 5754 5750 5746 5743 5739 5736 5733 5729 5726 5723 5721 5718 5716 5713 5711
5829 5828 5828 5827 5826 5826 5825 5823 5822 5820 5817 5814 5811 5810 5807 5804 5801 5797 5793 5790 5786 5783 5778 5775 5771 5767 5762 5758 5753 5749 5745 5741 5738 5734 5731 5728 5725 5722 5719 5716 5714 5711 5709 5706
5824 5824 5824 5823 5823 5821 5819 5818 5817 5814 5812 5810 5808 5805 5802 5799 5796 5793 5789 5785 5782 5778 5774 5770 5766 5762 5757 5753 5749 5744 5740 5736 5733 5729 5726 5724 5721 5718 5715 5712 5709 5706 5703 5701
5820 5820 5819 5821 5818 5817 5815 5812 5811 5808 5806 5803 5802 5800 5797 5795 5792 5788 5784 5781 5777 5773 5769 5766 5761 5757 5753 5748 5744 5740 5736 5732 5728 5725 5722 5719 5716 5713 5710 5707 5704 5701 5698 5695
5816 5815 5814 5815 5812 5811 5810 5807 5806 5804 5802 5800 5798 5795 5793 5790 5787 5783 5779 5776 5772 5768 5764 5761 5756 5752 5748 5744 5740 5735 5731 5727 5724 5721 5718 5715 5712 5708 5705 5702 5700 5697 5694 5691
5810 5810 5810 5809 5807 5806 5806 5802 5800 5798 5796 5794 5793 5791 5788 5785 5781 5778 5774 5770 5767 5763 5759 5755 5751 5747 5743 5739 5735 5731 5727 5723 5719 5716 5713 5710 5707 5703 5700 5697 5694 5692 5689 5686
5805 5805 5803 5802 5801 5801 5800 5798 5794 5791 5790 5789 5787 5785 5782 5779 5776 5773 5769 5765 5762 5758 5754 5750 5746 5742 5738 5734 5730 5726 5722 5719 5715 5711 5708 5705 5701 5698 5695 5692 5690 5687 5684 5682
5799 5799 5800 5796 5795 5795 5793 5791 5789 5786 5784 5783 5781 5778 5776 5773 5770 5767 5764 5760 5757 5753 5749 5745 5741 5737 5734 5730 5726 5722 5718 5714 5710 5707 5703 5700 5696 5694 5691 5688 5685 5682 5680 5677
5794 5794 5792 5791 5790 5788 5786 5784 5783 5781 5779 5777 5775 5772 5770 5767 5764 5761 5758 5755 5751 5747 5744 5740 5736 5732 5729 5725 5721 5717 5713 5710 5706 5702 5699 5695 5692 5689 5686 5683 5680 5678 5675 5672
5786 5785 5785 5784 5783 5781 5780 5779 5777 5775 5773 5771 5769 5766 5764 5761 5758 5755 5752 5749 5745 5742 5738 5735 5731 5727 5723 5720 5716 5712 5709 5705 5701 5697 5694 5690 5687 5684 5681 5678 5676 5673 5670 5668
5780 5779 5778 5778 5777 5775 5774 5772 5770 5768 5766 5764 5762 5760 5757 5754 5752 5749 5746 5743 5740 5736 5733 5729 5725 5722 5718 5714 5711 5707 5704 5700 5696 5693 5689 5685 5682 5679 5677 5674 5671 5669 5666 5663
5772 5772 5772 5771 5769 5768 5766 5765 5763 5761 5759 5757 5755 5753 5750 5748 5745 5743 5740 5737 5733 5730 5727 5723 5719 5716 5712 5709 5705 5702 5698 5695 5691 5688 5684 5681 5678 5676 5673 5670 5667 5664 5662 5659
5765 5764 5763 5762 5761 5760 5759 5757 5756 5754 5752 5750 5748 5746 5743 5741 5739 5736 5733 5730 5727 5724 5720 5717 5713 5710 5706 5703 5700 5696 5693 5690 5686 5683 5679 5676 5674 5671 5668 5666 5663 5660 5658 5655
5756 5756 5755 5754 5754 5753 5751 5750 5748 5746 5744 5743 5741 5738 5736 5734 5731 5729 5726 5723 5720 5717 5714 5710 5707 5703 5700 5697 5693 5690 5687 5684 5681 5678 5675 5672 5669 5666 5664 5661 5659 5656 5653 5651
5748 5748 5748 5747 5746 5744 5743 5742 5740 5739 5737 5735 5733 5730 5728 5726 5723 5721 5718 5715 5712 5709 5706 5703 5700 5696 5693 5690 5686 5683 5680 5678 5675 5672 5670 5667 5664 5661 5659 5657 5654 5651 5649 5647
5739 5739 5739 5738 5737 5736 5735 5733 5732 5730 5729 5727 5724 5722 5720 5717 5715 5713 5710 5707 5704 5701 5698 5695 5692 5688 5685 5682 5679 5676 5673 5671 5668 5666 5664 5661 5659 5656 5654 5652 5649 5647 5644 5642
5730 5730 5729 5729 5728 5727 5726 5724 5723 5721 5720 5718 5716 5714 5711 5709 5707 5704 5701 5699 5696 5693 5690 5687 5683 5680 5677 5674 5671 5669 5666 5664 5661 5659 5658 5655 5653 5651 5649 5646 5644 5642 5640 5637
5720 5720 5721 5720 5719 5718 5717 5715 5714 5712 5711 5709 5707 5705 5703 5701 5698 5696 5693 5690 5687 5685 5682 5679 5675 5672 5669 5666 5664 5661 5659 5656 5654 5653 5651 5649 5647 5645 5643 5641 5639 5637 5635 5633
5710 5710 5710 5710 5709 5708 5707 5706 5705 5703 5702 5700 5698 5696 5694 5692 5689 5687 5684 5682 5679 5676 5674 5671 5668 5665 5662 5659 5657 5654 5652 5650 5648 5646 5644 5643 5641 5639 5637 5635 5633 5631 5629 5628
5699 5700 5700 5700 5699 5699 5698 5696 5695 5694 5692 5691 5689 5687 5685 5683 5680 5678 5676 5673 5671 5668 5666 5663 5661 5658 5655 5653 5650 5648 5646 5644 5642 5640 5638 5636 5634 5632 5631 5629 5627 5626 5624 5623
5690 5690 5690 5689 5689 5689 5688 5687 5686 5684 5683 5681 5680 5678 5676 5674 5671 5669 5667 5665 5663 5660 5658 5656 5653 5651 5649 5647 5644 5642 5640 5638 5636 5634 5632 5630 5629 5627 5625 5623 5622 5620 5619 5618
5680 5680 5680 5679 5679 5679 5678 5677 5676 5675 5674 5672 5670 5669 5667 5665 5663 5661 5659 5656 5654 5652 5650 5648 5646 5644 5642 5640 5638 5636 5634 5632 5630 5629 5627 5625 5623 5622 5620 5618 5616 5615 5614 5612
5670 5670 5669 5670 5669 5669 5668 5668 5667 5666 5664 5663 5662 5660 5658 5657 5655 5652 5651 5649 5646 5644 5642 5641 5639 5637 5636 5634 5632 5630 5628 5626 5625 5623 5621 5620 5618 5616 5615 5613 5612 5610 5609 5608
5660 5659 5660 5660 5660 5659 5659 5658 5657 5656 5655 5654 5653 5652 5650 5648 5646 5645 5643 5641 5639 5637 5636 5634 5632 5631 5629 5628 5626 5624 5622 5621 5619 5618 5616 5615 5613 5612 5610 5609 5607 5606 5604 5604
5650 5650 5650 5650 5650 5649 5649 5648 5647 5647 5646 5645 5644 5643 5642 5640 5639 5637 5636 5634 5633 5631 5630 5628 5627 5625 5623 5622 5620 5618 5617 5615 5614 5612 5611 5610 5608 5607 5605 5604 5603 5602 5600 5599
5641 5641 5640 5640 5640 5639 5639 5638 5638 5637 5637 5636 5636 5635 5634 5632 5631 5630 5628 5627 5626 5624 5623 5622 5620 5619 5617 5615 5614 5613 5611 5610 5608 5607 5606 5605 5603 5602 5601 5600 5599 5598 5596 5595
5631 5631 5631 5631 5630 5630 5629 5629 5629 5628 5628 5627 5627 5626 5625 5624 5623 5622 5621 5620 5618 5617 5616 5615 5614 5612 5610 5609 5608 5607 5605 5604 5603 5602 5600 5599 5598 5597 5597 5596 5595 5594 5593 5591